Orbital Elements at Epoch 2459200.5 (2020-Dec-17.0) TDB
Reference: JPL 18 (heliocentric ecliptic J2000)
Element | Value | Uncertainty (1-sigma) | Units |
e | .1882598713754964 | 4.8525e-08 | |
a | 3.1449471342506 | 2.8521e-08 | au |
q | 2.552879791273846 | 1.5499e-07 | au |
i | 11.69484031417011 | 5.9685e-06 | deg |
node | 99.58773975212746 | 2.8237e-05 | deg |
peri | 163.88847592059 | 3.434e-05 | deg |
M | 29.95628985284078 | 1.6428e-05 | deg |
tp | 2459030.986623567721 (2020-Jun-30.48662357) | 9.2863e-05 | TDB |
period | 2037.128623584655 5.58 | 2.7711e-05 7.587e-08 | d yr |
n | .1767193273081216 | 2.4039e-09 | deg/d |
Q | 3.737014477227354 | 3.389e-08 | au |
|
| | Orbit Determination Parameters
Additional Information
|